TimeCST,TemperatureF,Dew PointF,Humidity,Sea Level PressureIn,VisibilityMPH,Wind Direction,Wind SpeedMPH,Gust SpeedMPH,PrecipitationIn,Events,Conditions,WindDirDegrees,DateUTC
12:53 AM,48.9,34.0,56,30.19,10.0,SSE,12.7,-,N/A,,Overcast,160,2012-11-18 06:53:00
1:53 AM,48.9,33.1,54,30.18,10.0,SSE,10.4,-,N/A,,Overcast,160,2012-11-18 07:53:00
2:53 AM,48.9,32.0,52,30.17,10.0,SSE,15.0,-,N/A,,Overcast,160,2012-11-18 08:53:00
3:53 AM,48.0,30.9,52,30.15,10.0,SSE,6.9,17.3,N/A,,Overcast,160,2012-11-18 09:53:00
4:53 AM,46.9,30.9,54,30.15,10.0,South,10.4,-,N/A,,Scattered Clouds,170,2012-11-18 10:53:00
5:53 AM,46.0,30.0,54,30.15,10.0,SSE,9.2,-,N/A,,Clear,160,2012-11-18 11:53:00
6:53 AM,45.0,30.0,56,30.14,10.0,SSE,11.5,-,N/A,,Clear,160,2012-11-18 12:53:00
7:53 AM,45.0,30.0,56,30.13,10.0,SSE,12.7,-,N/A,,Mostly Cloudy,160,2012-11-18 13:53:00
8:53 AM,48.0,30.0,50,30.13,10.0,SSE,13.8,-,N/A,,Clear,160,2012-11-18 14:53:00
9:53 AM,51.1,30.0,44,30.12,10.0,South,13.8,20.7,N/A,,Clear,180,2012-11-18 15:53:00
10:53 AM,53.1,30.9,43,30.13,10.0,South,16.1,23.0,N/A,,Clear,170,2012-11-18 16:53:00
11:53 AM,55.9,30.9,39,30.10,10.0,SSE,17.3,21.9,N/A,,Clear,160,2012-11-18 17:53:00
12:53 PM,57.0,32.0,39,30.09,10.0,South,16.1,21.9,N/A,,Clear,180,2012-11-18 18:53:00
1:53 PM,59.0,32.0,36,30.07,10.0,SSE,13.8,-,N/A,,Clear,160,2012-11-18 19:53:00
2:53 PM,59.0,33.1,38,30.06,10.0,SE,10.4,-,N/A,,Clear,140,2012-11-18 20:53:00
3:53 PM,55.0,33.1,43,30.08,10.0,SE,9.2,-,N/A,,Clear,140,2012-11-18 21:53:00
4:53 PM,52.0,33.1,49,30.08,10.0,SSE,6.9,-,N/A,,Clear,160,2012-11-18 22:53:00
5:53 PM,54.0,33.1,45,30.09,10.0,SSE,11.5,-,N/A,,Clear,150,2012-11-18 23:53:00
6:53 PM,54.0,33.1,45,30.10,10.0,SSE,13.8,18.4,N/A,,Clear,160,2012-11-19 00:53:00
8:53 PM,51.1,33.1,50,30.10,10.0,South,10.4,-,N/A,,Clear,170,2012-11-19 02:53:00
9:53 PM,50.0,33.1,52,30.10,10.0,South,9.2,-,N/A,,Clear,170,2012-11-19 03:53:00
10:53 PM,48.9,33.1,54,30.10,10.0,South,11.5,-,N/A,,Clear,170,2012-11-19 04:53:00
11:53 PM,48.0,33.1,56,30.09,10.0,SE,9.2,-,N/A,,Scattered Clouds,140,2012-11-19 05:53:00